Location: Gugi
(45.4667°N, 11.1000°E)
Time: 11:56:31
(UTC+00:00)

Cosmos 2322 Rocket - Pass Details

Date: 17 November 2019
Orbit: 833 x 851 km, 71.0° (Epoch: 06 December)

Event Time Altitude Azimuth Distance (km) Brightness Sun altitude
Rises 18:08:39 0° 177° (S) 3,363 5.3 -25.3°
Reaches altitude 10° 18:11:16 10° 168° (SSE) 2,434 4.5 -25.7°
Enters shadow 18:11:20 10° 167° (SSE) 2,412 4.5 -25.7°
